Regional Weather Roundup
Issued by NWS

Home | Current Version | Previous Version | Graphics & Text | Print | Product List | Glossary Off
Versions: 1 2 3 4 5 6 7 8 9 10 11 12 13 14 15 16 17 18 19 20 21 22 23 24 25 26 27 28 29 30 31 32 33 34 35 36 37 38 39 40 41 42 43 44 45 46 47 48 49 50

948
ASUS43 KMKX 260400
RWRWI

WISCONSIN REGIONAL WEATHER ROUNDUP
NATIONAL WEATHER SERVICE MILWAUKEE/SULLIVAN WI
1000 PM CST SAT FEB 25 2017

NOTE: "FAIR" INDICATES FEW OR NO CLOUDS BELOW 12,000 FEET WITH NO
SIGNIFICANT WEATHER AND/OR OBSTRUCTIONS TO VISIBILITY.

WIZ001-002-006>008-014>016-023>028-260500-
NORTHWEST WISCONSIN

CITY           SKY/WX    TMP DP  RH WIND       PRES   REMARKS
SUPERIOR ARPT  LGT SNOW  27  26  96 SW5       29.76F WCI  22
ASHLAND        CLOUDY    27  17  66 SW9       29.77F WCI  18
HAYWARD        MOCLDY    26  16  65 S8        29.76F WCI  18
SIREN          CLOUDY    29  20  67 SW16      29.78S WCI  18
CUMBERLAND     CLOUDY    27  19  74 SW14G20   29.80S WCI  15
RICE LAKE      CLOUDY    26  19  74 SW12      29.83S WCI  15
CHETEK         PTCLDY    24  18  76 SW10G18   29.83S WCI  14
LADYSMITH      PTCLDY    23  15  72 S8        29.83S WCI  13
EAU CLAIRE     NOT AVBL
MENOMONIE      PTCLDY    23  15  71 S12       29.87S WCI  12
NEW RICHMOND   CLEAR     24  17  75 S12G17    29.83F WCI  12
OSCEOLA        PTCLDY    27  19  71 S12G18    29.85S WCI  17
$$

WIZ003>005-009-010-017-018-260500-
NORTH CENTRAL WISCONSIN

CITY           SKY/WX    TMP DP  RH WIND       PRES   REMARKS
MANITOWISH WTR CLOUDY    17  10  74 S3        29.77S
ARBOR VITAE    CLOUDY    19  11  70 S6          N/A  WCI  11
WOODRUFF       CLOUDY    19  11  70 S6          N/A  WCI  11
RHINELANDER    CLOUDY    19   8  62 SW8       29.80S WCI   9
EAGLE RIVER    CLOUDY    18   8  63 SW9       29.78S WCI   7
LAND O LAKES   CLOUDY    12   9  88 CALM      29.78S
PHILLIPS       MOCLDY    20  11  66 S7        29.78F WCI  11
TOMAHAWK       CLOUDY    18   9  69 SW5       29.82S WCI  11
MEDFORD        CLEAR     16   7  69 SW8       29.83S WCI   5
MERRILL        NOT AVBL
$$

WIZ029-030-035-036-043>047-260500-
CENTRAL WISCONSIN

CITY           SKY/WX    TMP DP  RH WIND       PRES   REMARKS
WAUSAU         CLEAR     18   8  65 SW9       29.86S WCI   7
MOSINEE        CLEAR     16   9  73 SW9       29.88S WCI   4
MARSHFIELD     CLEAR     18  10  71 SW10      29.87R WCI   6
STEVENS POINT  CLEAR     18   9  68 SW7       29.91R WCI   8
WAUPACA        CLEAR     17   9  69 SW6       29.94R WCI   9
WAUTOMA        NOT AVBL
WISC RAPIDS    CLEAR     17  10  74 SW7       29.92S WCI   8
CAMP DOUGLAS   NOT AVBL
$$

WIZ011>013-019>022-031-037>040-048>050-260500-
NORTHEAST WISCONSIN

CITY           SKY/WX    TMP DP  RH WIND       PRES   REMARKS
ANTIGO         CLEAR     13   6  73 SW8       29.84R WCI   2
SHAWANO        CLEAR     18   9  65 CALM      29.91S
OCONTO         CLEAR     17   7  65 SW6       29.90S WCI   9
STURGEON BAY   CLEAR     18  10  71 SW10      29.91R WCI   6
GREEN BAY      CLEAR     20  10  65 W10       29.93R WCI   9
MANITOWOC      NOT AVBL
APPLETON       PTCLDY    19   9  63 SW10      29.92R WCI   8
CLINTONVILLE   CLEAR     16   7  67 SW3       29.91S
OSHKOSH        CLEAR     20   9  62 W7        29.94R WCI  11
$$

WIZ032>034-041-042-053>061-260500-
SOUTHWEST WISCONSIN

CITY           SKY/WX    TMP DP  RH WIND       PRES   REMARKS
LA CROSSE      MOCLDY    23  13  65 S12       29.97R WCI  12
SPARTA         PTCLDY    19  13  77 S3        29.96S
VIROQUA        CLEAR     18  12  80 SW8       29.94S WCI   7
BOSCOBEL       CLEAR     21  13  71 S6        30.01S WCI  13
PRAIRIE DU CHI CLEAR     22  14  70 CALM      30.01S
PLATTEVILLE    CLEAR     19  15  85 SW6       30.01S WCI  11
$$

WIZ056-057-062-063-064-067-068-260500-
SOUTH CENTRAL WISCONSIN

CITY           SKY/WX    TMP DP  RH WIND       PRES   REMARKS
REEDSBURG      CLEAR     19  11  70 S3        29.97S
BARABOO/DELLS  CLEAR     19  11  73 SW7       29.96S WCI   9
LONE ROCK      NOT AVBL
MINERAL POINT  CLEAR     21  18  86 CALM      29.99S
MADISON        MOCLDY    20  14  77 SW5       29.99S WCI  13
MIDDLETON      CLEAR     21  15  78 SW5       30.00S WCI  15
WATERTOWN      CLEAR     17  12  82 SW5       29.99R WCI  10
MONROE         CLEAR     21  16  79 W10       30.00R WCI  10
JANESVILLE     CLEAR     23  16  74 W3        30.01S
$$

WIZ051-052-058>065-066-070>072-260500-
SOUTHEAST WISCONSIN

CITY           SKY/WX    TMP DP  RH WIND       PRES   REMARKS
MILWAUKEE      PTCLDY    24  11  57 W6        29.99R WCI  17
WAUKESHA       CLEAR     21  12  68 W9G17     29.99R WCI  11
MILWAUKEE/TIMM CLEAR     21  10  63 W9        29.99R WCI  11
RACINE         PTCLDY    22  12  65 W9        30.01R WCI  12
KENOSHA        CLOUDY    22  14  71 W9        30.01R WCI  12
FOND DU LAC    CLEAR     18   9  68 SW7       29.96S WCI   9
SHEBOYGAN      CLEAR     20  10  65 W13       29.95R WCI   7
WEST BEND      CLEAR     19  14  79 W5        29.97R WCI  13
JUNEAU         CLEAR     16  11  82 SW3       29.98S
$$

LSZ147-162-260500-
LAKE SUPERIOR

STATION/POSITION TIME  TEMP    WIND        PRES    WAVE
                       AIR SEA DIR/SP/G            HT/PER
                 (UTC) (F)     (DEG/KT/KT) (MB)    (FT/S)
DEVILS ISLAND    0300   28     210/ 15/ 18 1008.3F
PORT WING        0340   28     200/  7/ 11 1008.1S
SAXON HARBOR     0240   22     180/  4/  7 1008.5S
$$

LMZ867-665-643>646-260500-
LAKE MICHIGAN

STATION/POSITION TIME  TEMP    WIND        PRES    WAVE
                       AIR SEA DIR/SP/G            HT/PER
                 (UTC) (F)     (DEG/KT/KT) (MB)    (FT/S)
NORTHPORT PIER   0340   20        CALM     1011.9R
SISTER BAY       0305   20        CALM       N/A
KEWAUNEE LAKESHO 0330   21     270/ 12/ 14 1012.7R
SHEBOYGAN LAKESH 0300   22     260/ 13/ 16 1015.0R
PORT WASHINGTON  0330   22     270/  9/ 14 1015.9R
MILWAUKEE LAKESH 0320   24     280/  9/ 13   N/A
KENOSHA   LAKESH 0300   24     270/ 10/ 15 1015.9
$$

TC  - TEMPERATURE IN CELSIUS
VSB - VISIBILITY IN STATUTE MILES
WCI - WIND CHILL INDEX
HX  - HEAT INDEX





USA.gov is the U.S. government's official web portal to all federal, state and local government web resources and services.